{"data":{"norad_id":67694,"epoch":"2026-09-19T12:49:05.608416Z","epoch_age_seconds":152256,"freshness":"FRESH","line1":"1 67694U 26025B   26262.53409269  .00019375  00000+0  60068-3 0  9990","line2":"2 67694  97.2847  12.3838 0000883  89.3005 270.8339 15.33458540 35727","mean_motion":15.3345854,"eccentricity":8.83e-5,"inclination_deg":97.2847,"raan_deg":12.3838,"arg_perigee_deg":89.3005,"mean_anomaly_deg":270.8339,"bstar":0.00060068,"rev_number":3572,"period_min":93.905375491926,"perigee_km":464.89859585854,"apogee_km":466.10718266298,"semimajor_km":6843.6398892608,"source":"CELESTRAK","updated_at":"2026-09-20T09:00:43.626059Z"}}